| time (UTC) | temp C | wind direction | speed KPH | gust KPH | rain 1hr cm | rain 24hr cm | rain mn cm | humidity % | barometer mb |
| 20260508063044 | 14 | 270 | 0.0 | 0.0 | 0.00 | 0.00 | 0.00 | 89 | 1014.7 |
| 20260508061529 | 14 | 270 | 0.0 | 0.0 | 0.00 | 0.00 | 0.00 | 89 | 1014.6 |
| 20260508060034 | 14 | 270 | 0.0 | 0.0 | 0.00 | 0.00 | 0.00 | 89 | 1014.6 |
| 20260508054529 | 14 | 270 | 0.0 | 1.6 | 0.00 | 0.00 | 0.00 | 89 | 1014.4 |
| 20260508053025 | 14 | 270 | 0.0 | 0.0 | 0.00 | 0.00 | 0.00 | 88 | 1014.4 |
| 20260508051525 | 14 | 270 | 0.0 | 0.0 | 0.00 | 0.00 | 0.00 | 88 | 1014.4 |
| 20260508050022 | 14 | 270 | 0.0 | 0.0 | 0.00 | 0.00 | 0.00 | 88 | 1014.7 |
| 20260508044528 | 15 | 270 | 0.0 | 0.0 | 0.00 | 0.00 | 0.00 | 88 | 1014.9 |
| 20260508043022 | 15 | 153 | 0.0 | 0.0 | 0.00 | 0.00 | 0.00 | 87 | 1014.8 |
| 20260508041521 | 15 | 153 | 0.0 | 1.6 | 0.00 | 0.00 | 0.00 | 86 | 1014.8 |
| 20260508040020 | 15 | 160 | 0.0 | 0.0 | 0.00 | 0.00 | 0.00 | 85 | 1015.2 |
| 20260508034520 | 15 | 160 | 0.0 | 3.2 | 0.00 | 0.00 | 0.00 | 85 | 1015.4 |
| 20260508033022 | 15 | 160 | 0.0 | 1.6 | 0.00 | 0.00 | 0.00 | 84 | 1015.5 |
| 20260508031518 | 15 | 264 | 1.6 | 3.2 | 0.00 | 0.00 | 0.00 | 84 | 1015.0 |
| 20260508030018 | 15 | 294 | 0.0 | 1.6 | 0.00 | 0.00 | 0.00 | 83 | 1014.8 |
| 20260508024531 | 16 | 72 | 0.0 | 3.2 | 0.00 | 0.00 | 0.00 | 83 | 1014.1 |
| 20260508023024 | 16 | 29 | 0.0 | 1.6 | 0.00 | 0.00 | 0.00 | 82 | 1013.7 |
| 20260508021517 | 16 | 29 | 0.0 | 3.2 | 0.00 | 0.00 | 0.00 | 81 | 1013.7 |
| 20260508020016 | 16 | 71 | 0.0 | 4.8 | 0.00 | 0.00 | 0.00 | 80 | 1013.5 |
| 20260508014515 | 16 | 77 | 0.0 | 3.2 | 0.00 | 0.00 | 0.00 | 80 | 1013.3 |
| 20260508013013 | 16 | 40 | 0.0 | 4.8 | 0.00 | 0.00 | 0.00 | 78 | 1013.6 |
| 20260508011515 | 17 | 22 | 1.6 | 4.8 | 0.00 | 0.00 | 0.00 | 77 | 1013.4 |
| 20260508010012 | 17 | 117 | 0.0 | 3.2 | 0.00 | 0.00 | 0.00 | 75 | 1013.8 |
| 20260508004509 | 17 | 317 | 0.0 | 4.8 | 0.00 | 0.00 | 0.00 | 73 | 1014.1 |
| 20260508003012 | 18 | 15 | 1.6 | 4.8 | 0.00 | 0.00 | 0.00 | 71 | 1014.3 |
| 20260508001506 | 18 | 28 | 1.6 | 6.4 | 0.00 | 0.00 | 0.00 | 70 | 1014.3 |
| 20260508000006 | 18 | 79 | 1.6 | 6.4 | 0.00 | 0.00 | 0.00 | 70 | 1014.7 |
| 20260507234512 | 18 | 302 | 1.6 | 6.4 | 0.00 | 0.00 | 0.00 | 70 | 1015.1 |
| 20260507233006 | 18 | 12 | 0.0 | 1.6 | 0.00 | 0.00 | 0.00 | 70 | 1015.2 |
| 20260507231503 | 18 | 82 | 1.6 | 6.4 | 0.00 | 0.00 | 0.00 | 70 | 1014.2 |
| 20260507230003 | 18 | 44 | 1.6 | 4.8 | 0.00 | 0.00 | 0.00 | 68 | 1014.8 |
| 20260507224502 | 18 | 22 | 1.6 | 6.4 | 0.00 | 0.00 | 0.00 | 68 | 1015.2 |
| 20260507223101 | 18 | 311 | 1.6 | 6.4 | 0.00 | 0.00 | 0.00 | 68 | 1015.4 |
| 20260507221601 | 18 | 350 | 1.6 | 8.0 | 0.00 | 0.00 | 0.00 | 67 | 1015.4 |
| 20260507220058 | 18 | 33 | 4.8 | 11.3 | 0.00 | 0.00 | 0.00 | 68 | 1015.2 |
| 20260507214607 | 18 | 311 | 0.0 | 8.0 | 0.00 | 0.00 | 0.00 | 69 | 1015.9 |
| 20260507213058 | 18 | 285 | 4.8 | 9.7 | 0.00 | 0.00 | 0.00 | 70 | 1016.1 |
| 20260507211601 | 18 | 11 | 1.6 | 9.7 | 0.00 | 0.00 | 0.00 | 71 | 1016.0 |
| 20260507204555 | 17 | 46 | 3.2 | 12.9 | 0.00 | 0.00 | 0.00 | 69 | 1016.1 |
| 20260507203105 | 17 | 54 | 3.2 | 12.9 | 0.00 | 0.00 | 0.00 | 70 | 1016.5 |
| 20260507201559 | 17 | 328 | 0.0 | 8.0 | 0.00 | 0.00 | 0.00 | 70 | 1016.8 |
| 20260507200105 | 17 | 322 | 3.2 | 12.9 | 0.00 | 0.00 | 0.00 | 71 | 1016.1 |
| 20260507194550 | 17 | 329 | 1.6 | 8.0 | 0.00 | 0.00 | 0.00 | 72 | 1016.9 |
| 20260507193050 | 17 | 310 | 0.0 | 8.0 | 0.00 | 0.00 | 0.00 | 71 | 1017.5 |
| 20260507191546 | 17 | 57 | 4.8 | 11.3 | 0.00 | 0.00 | 0.00 | 71 | 1017.0 |
| 20260507190048 | 17 | 14 | 1.6 | 9.7 | 0.00 | 0.00 | 0.00 | 74 | 1016.9 |
| 20260507184548 | 17 | 39 | 4.8 | 17.7 | 0.00 | 0.00 | 0.00 | 73 | 1016.7 |
| 20260507183047 | 17 | 32 | 4.8 | 9.7 | 0.00 | 0.00 | 0.00 | 73 | 1016.8 |
| 20260507181541 | 17 | 18 | 3.2 | 8.0 | 0.00 | 0.00 | 0.00 | 75 | 1016.9 |
| 20260507180046 | 16 | 57 | 3.2 | 12.9 | 0.00 | 0.00 | 0.00 | 75 | 1017.7 |
| 20260507174538 | 16 | 311 | 3.2 | 14.5 | 0.00 | 0.00 | 0.00 | 75 | 1017.9 |
| 20260507173036 | 16 | 39 | 6.4 | 16.1 | 0.00 | 0.00 | 0.00 | 77 | 1016.9 |
| 20260507171530 | 15 | 13 | 4.8 | 16.1 | 0.00 | 0.00 | 0.00 | 81 | 1017.8 |
| 20260507170036 | 15 | 342 | 3.2 | 9.7 | 0.00 | 0.00 | 0.00 | 82 | 1017.1 |
| 20260507164531 | 15 | 80 | 3.2 | 8.0 | 0.00 | 0.00 | 0.00 | 81 | 1017.2 |
| 20260507163029 | 15 | 287 | 4.8 | 9.7 | 0.00 | 0.00 | 0.00 | 81 | 1019.2 |
| 20260507161528 | 15 | 346 | 0.0 | 8.0 | 0.00 | 0.00 | 0.00 | 82 | 1019.0 |
| 20260507160028 | 15 | 349 | 3.2 | 8.0 | 0.00 | 0.00 | 0.00 | 83 | 1018.4 |
| 20260507154628 | 15 | 5 | 0.0 | 8.0 | 0.00 | 0.00 | 0.00 | 83 | 1018.6 |
| 20260507153025 | 15 | 13 | 1.6 | 8.0 | 0.00 | 0.00 | 0.00 | 83 | 1018.4 |
| 20260507151523 | 14 | 5 | 3.2 | 14.5 | 0.00 | 0.00 | 0.00 | 84 | 1018.2 |
| 20260507150026 | 14 | 39 | 3.2 | 14.5 | 0.00 | 0.00 | 0.00 | 84 | 1018.7 |
| 20260507144525 | 13 | 38 | 3.2 | 14.5 | 0.00 | 0.00 | 0.00 | 87 | 1017.5 |
| 20260507143027 | 13 | 360 | 3.2 | 16.1 | 0.00 | 0.00 | 0.00 | 90 | 1017.9 |
| 20260507141518 | 13 | 315 | 1.6 | 16.1 | 0.00 | 0.00 | 0.00 | 91 | 1018.2 |
| 20260507140116 | 13 | 17 | 1.6 | 12.9 | 0.00 | 0.00 | 0.00 | 91 | 1018.1 |
| 20260507134521 | 13 | 321 | 3.2 | 9.7 | 0.00 | 0.00 | 0.00 | 92 | 1017.6 |
| 20260507133016 | 13 | 26 | 3.2 | 17.7 | 0.00 | 0.00 | 0.00 | 92 | 1017.6 |
| 20260507131516 | 13 | 360 | 3.2 | 19.3 | 0.00 | 0.00 | 0.00 | 93 | 1017.7 |
| 20260507130012 | 13 | 306 | 4.8 | 12.9 | 0.00 | 0.00 | 0.00 | 93 | 1017.8 |
| 20260507124512 | 13 | 315 | 4.8 | 14.5 | 0.00 | 0.00 | 0.00 | 92 | 1017.7 |
| 20260507123013 | 13 | 355 | 4.8 | 16.1 | 0.00 | 0.00 | 0.00 | 92 | 1017.5 |
| 20260507121507 | 13 | 286 | 4.8 | 19.3 | 0.00 | 0.00 | 0.00 | 92 | 1017.4 |
| 20260507120006 | 13 | 332 | 4.8 | 17.7 | 0.00 | 0.00 | 0.00 | 92 | 1016.8 |
| 20260507114501 | 13 | 57 | 4.8 | 12.9 | 0.00 | 0.00 | 0.00 | 91 | 1016.9 |
| 20260507113100 | 13 | 318 | 3.2 | 16.1 | 0.00 | 0.00 | 0.00 | 91 | 1017.0 |
| 20260507111601 | 13 | 324 | 1.6 | 14.5 | 0.00 | 0.00 | 0.00 | 91 | 1016.8 |
| 20260507110056 | 13 | 22 | 0.0 | 16.1 | 0.00 | 0.00 | 0.00 | 91 | 1016.6 |
| 20260507104555 | 13 | 355 | 3.2 | 16.1 | 0.00 | 0.00 | 0.00 | 91 | 1016.9 |
| 20260507103054 | 13 | 340 | 1.6 | 14.5 | 0.00 | 0.00 | 0.00 | 90 | 1016.3 |
| 20260507101553 | 13 | 319 | 3.2 | 16.1 | 0.00 | 0.00 | 0.00 | 90 | 1016.5 |
| 20260507100050 | 13 | 31 | 0.0 | 9.7 | 0.00 | 0.00 | 0.00 | 90 | 1016.1 |
| 20260507094549 | 13 | 30 | 1.6 | 8.0 | 0.00 | 0.00 | 0.00 | 90 | 1016.3 |
| 20260507093049 | 13 | 355 | 3.2 | 9.7 | 0.00 | 0.00 | 0.00 | 90 | 1015.7 |
| 20260507091547 | 13 | 36 | 1.6 | 8.0 | 0.00 | 0.00 | 0.00 | 90 | 1016.0 |
| 20260507090047 | 13 | 325 | 0.0 | 12.9 | 0.00 | 0.00 | 0.00 | 90 | 1015.5 |
| 20260507084553 | 13 | 5 | 1.6 | 9.7 | 0.00 | 0.00 | 0.00 | 90 | 1015.3 |
| 20260507083041 | 13 | 17 | 1.6 | 6.4 | 0.00 | 0.00 | 0.00 | 89 | 1015.1 |
| 20260507081543 | 13 | 23 | 1.6 | 8.0 | 0.00 | 0.00 | 0.00 | 89 | 1015.0 |
| 20260507080043 | 14 | 355 | 4.8 | 11.3 | 0.00 | 0.00 | 0.00 | 89 | 1014.4 |
| 20260507074537 | 14 | 11 | 4.8 | 14.5 | 0.00 | 0.00 | 0.00 | 88 | 1014.7 |
| 20260507073035 | 14 | 30 | 3.2 | 12.9 | 0.00 | 0.00 | 0.00 | 88 | 1014.5 |
| 20260507071533 | 14 | 78 | 0.0 | 6.4 | 0.00 | 0.00 | 0.00 | 87 | 1014.6 |
| 20260507070033 | 15 | 46 | 3.2 | 9.7 | 0.00 | 0.00 | 0.00 | 87 | 1014.4 |
| 20260507064530 | 15 | 50 | 0.0 | 9.7 | 0.00 | 0.00 | 0.00 | 86 | 1014.4 |